Location: Unspecified
(48.8656°N, 0.0000°E)
Time: 07:25:57
(UTC+00:00)

Transit 2A Rocket - Pass Details

Date: 18 June 2019
Orbit: 588 x 915 km, 66.7° (Epoch: 21 July)

Event Time Altitude Azimuth Distance (km) Brightness Sun altitude
Rises 16:50:42 0° 320° (NW) 3,448 9.0 28.8°
Reaches altitude 10° 16:54:19 10° 342° (NNW) 2,449 8.0 28.2°
Maximum altitude 16:57:41 16° 18° (NNE) 2,003 7.2 27.7°
Drops below altitude 10° 17:00:53 10° 56° (NE) 2,315 7.2 27.1°
Sets 17:04:10 0° 78° (ENE) 3,164 7.7 26.6°
